Home > Weather > Sacramento > Past weeks

Flag for U.S.A. Weather for the Past 2 Weeks in Sacramento, California, U.S.A.

Now
44 °F

Clear.


Feels Like: 44 °F
Forecast: 41 / 70 °F
Wind: No wind

Location: Sacramento Executive Airport

Current Time: Feb 7, 2016 at 2:57:40 AM

Latest Report: Feb 7, 2016 at 1:53 AM


Visibility: 10 mi

Pressure: 30.30 "Hg

Humidity: 85%

Dew point: 40 °F

Location of SacramentoLocation

Historic Weather in Sacramento — Graph

°F

Sacramento Temperature Yesterday

Maximum temperature yesterday: 64 °F (at 1:53 PM)
Minimum temperature yesterday: 37 °F (at 7:00 AM)
Average temperature yesterday: 50 °F

High & Low Weather Summary for the Past Weeks

 TemperatureHumidityPressure
High64 °F (Feb 6, 1:53 PM)100% (Feb 6, 7:53 AM)30.49 "Hg (Feb 6, 7:53 AM)
Low35 °F (Feb 3, 3:53 AM)29% (Feb 1, 2:53 PM)29.71 "Hg (Jan 31, 2:53 PM)
Average50 °F77%30.22 "Hg
* Reported Jan 23 1:53 AM — Feb 7 1:53 AM, Sacramento, Weather by CustomWeather, © 2016

Note: Actual official high and low records may vary slightly from our data, if they occured in-between our weather recording intervals... More about our weather records

Advertising

Sacramento Weather History for the Previous 24 Hours

 ConditionsComfort  
Time TempWeatherWind HumidityBarometerVisibility
1:53 AM
Sun, Feb 7
44 °FClear.No wind85%30.30 "Hg10 mi
12:53 AM45 °FClear.No wind90%30.30 "Hg10 mi
11:53 PM
Sat, Feb 6
47 °FClear.No wind86%30.31 "Hg10 mi
10:53 PM49 °FClear.No wind84%30.32 "Hg10 mi
9:53 PM50 °FClear.3 mph83%30.33 "Hg10 mi
8:53 PM50 °FClear.3 mph80%30.32 "Hg10 mi
7:53 PM52 °FClear.3 mph75%30.32 "Hg10 mi
6:53 PM55 °FClear.5 mph67%30.32 "Hg10 mi
5:53 PM58 °FClear.5 mph62%30.31 "Hg10 mi
4:53 PM62 °FSunny.6 mph56%30.32 "Hg10 mi
3:53 PM61 °FSunny.8 mph58%30.32 "Hg10 mi
2:53 PM62 °FSunny.8 mph52%30.34 "Hg10 mi
1:53 PM64 °FSunny.10 mph49%30.34 "Hg10 mi
12:53 PM62 °FSunny.7 mph56%30.38 "Hg10 mi
11:53 AM59 °FSunny.8 mph58%30.42 "Hg10 mi
10:53 AM56 °FSunny.No wind65%30.45 "Hg10 mi
9:53 AM53 °FSunny.No wind74%30.45 "Hg10 mi
8:53 AM48 °FSunny.No wind86%30.45 "Hg8 mi
7:53 AM40 °FFog.No wind100%30.45 "Hg3 mi
7:00 AM37 °FFog.3 mph96%30.45 "Hg3 mi
5:56 AM39 °FFog.No wind96%30.43 "Hg3 mi
4:53 AM40 °FFog.No wind93%30.42 "Hg2 mi
3:53 AM41 °FFog.No wind89%30.41 "Hg6 mi
2:53 AM39 °FClear.3 mph93%30.42 "Hg9 mi
Weather by CustomWeather, © 2016

See weather overviewHow to use our weather pages